Temp
-10 -10 -10 -9 -8 -9 -8 -7 -7 -7 -7 -6 -6 -6 -6 -6 -6 -6 -6 -7 -7 -7 -7 -7 -8 -8 -7 -8 -8 -8 -8 -8 -8 -8 -8 -8 -8 -8 -8 -8 -8 -8 -8
-9 -10 -10 -9 -9 -9 -8 -7 -7 -7 -7 -7 -7 -7 -6 -6 -6 -6 -6 -6 -6 -6 -6 -6 -6 -6 -7 -7 -7 -7 -8 -7 -7 -7 -7 -8 -8 -8 -8 -7 -7 -7 -8
-10 -10 -10 -10 -9 -9 -8 -8 -8 -7 -7 -7 -7 -7 -6 -7 -6 -6 -6 -6 -6 -6 -6 -6 -6 -6 -6 -6 -6 -7 -7 -7 -7 -7 -7 -8 -7 -7 -7 -7 -7 -7 -7
-10 -10 -10 -10 -9 -9 -9 -9 -8 -8 -8 -7 -7 -7 -7 -6 -6 -6 -6 -6 -6 -6 -6 -6 -6 -6 -6 -7 -7 -7 -7 -7 -7 -7 -7 -7 -7 -7 -7 -8 -8 -8 -8
-10 -10 -10 -10 -9 -9 -9 -9 -8 -8 -8 -7 -7 -7 -7 -7 -7 -7 -7 -7 -7 -7 -7 -7 -7 -7 -7 -7 -7 -7 -7 -7 -7 -7 -7 -7 -8 -8 -8 -8 -8 -8 -8
-10 -10 -10 -10 -9 -9 -9 -9 -9 -8 -8 -7 -7 -7 -7 -7 -7 -7 -7 -7 -7 -7 -7 -7 -7 -8 -8 -8 -8 -8 -8 -8 -8 -8 -8 -8 -8 -8 -8 -8 -8 -9 -8
-11 -11 -10 -10 -10 -9 -9 -9 -8 -8 -8 -8 -8 -7 -7 -7 -7 -7 -7 -7 -7 -7 -7 -7 -7 -7 -7 -8 -8 -8 -8 -9 -9 -9 -9 -9 -9 -9 -9 -9 -9 -9 -10
-10 -10 -10 -10 -10 -9 -9 -9 -9 -8 -8 -7 -8 -7 -7 -7 -7 -7 -7 -7 -7 -7 -7 -7 -7 -7 -7 -7 -8 -8 -9 -9 -10 -10 -10 -10 -10 -10 -10 -10 -10 -10 -10
-11 -11 -11 -10 -9 -9 -9 -9 -8 -8 -8 -8 -8 -8 -8 -8 -8 -8 -8 -7 -8 -8 -8 -8 -8 -8 -8 -8 -8 -9 -9 -10 -10 -10 -10 -11 -11 -11 -11 -11 -11 -11 -11
-10 -10 -10 -10 -9 -9 -9 -9 -9 -9 -8 -8 -8 -8 -8 -8 -8 -8 -8 -8 -8 -8 -8 -8 -8 -8 -8 -8 -9 -9 -10 -10 -11 -11 -11 -11 -11 -11 -11 -12 -12 -12 -13
-10 -10 -10 -10 -10 -10 -10 -9 -9 -9 -9 -9 -9 -9 -9 -8 -8 -9 -8 -8 -8 -8 -8 -8 -8 -8 -9 -9 -9 -10 -10 -11 -11 -11 -11 -11 -11 -12 -13 -13 -13 -14 -14
-10 -10 -10 -10 -10 -10 -10 -10 -10 -9 -9 -9 -9 -9 -9 -9 -9 -9 -9 -9 -8 -8 -8 -8 -9 -9 -10 -10 -10 -11 -11 -11 -11 -12 -12 -12 -12 -12 -13 -13 -14 -14 -14
-11 -11 -10 -10 -10 -10 -10 -10 -10 -9 -9 -9 -9 -9 -9 -9 -9 -9 -9 -9 -9 -9 -9 -9 -10 -10 -10 -11 -11 -11 -12 -12 -12 -12 -12 -13 -13 -14 -14 -14 -14 -14 -15
-11 -11 -11 -11 -10 -10 -10 -10 -10 -10 -10 -10 -10 -10 -10 -10 -10 -9 -9 -9 -9 -9 -9 -10 -11 -11 -11 -12 -12 -12 -13 -13 -13 -13 -13 -14 -14 -14 -15 -15 -15 -15 -15
-11 -11 -11 -11 -11 -11 -11 -10 -10 -10 -10 -10 -10 -10 -10 -10 -10 -10 -10 -10 -10 -10 -11 -11 -12 -12 -12 -13 -13 -13 -13 -13 -14 -14 -14 -14 -15 -15 -15 -15 -15 -15 -15
-11 -11 -11 -11 -11 -11 -10 -10 -10 -10 -10 -10 -10 -11 -11 -11 -11 -11 -11 -11 -11 -12 -12 -12 -13 -13 -13 -14 -14 -14 -14 -14 -14 -15 -15 -15 -15 -16 -16 -16 -16 -17 -17
-11 -11 -11 -11 -11 -11 -11 -10 -10 -10 -11 -11 -11 -11 -11 -11 -11 -11 -11 -12 -12 -13 -13 -13 -14 -14 -14 -14 -15 -15 -15 -15 -15 -15 -15 -16 -16 -16 -16 -17 -17 -18 -18
-11 -11 -11 -11 -11 -11 -11 -11 -11 -12 -12 -12 -12 -12 -11 -11 -12 -12 -12 -13 -13 -13 -14 -14 -14 -15 -15 -15 -15 -15 -16 -16 -16 -16 -16 -16 -17 -17 -17 -18 -19 -19 -19
-11 -11 -11 -12 -12 -12 -12 -12 -12 -12 -12 -12 -12 -12 -12 -12 -13 -13 -13 -14 -14 -15 -15 -15 -15 -15 -15 -16 -16 -16 -16 -16 -16 -16 -16 -17 -17 -17 -17 -18 -19 -20 -20
-12 -12 -12 -12 -12 -13 -13 -13 -13 -13 -13 -12 -12 -13 -13 -13 -14 -14 -14 -15 -15 -16 -16 -16 -16 -16 -16 -16 -16 -16 -16 -16 -16 -17 -17 -17 -17 -18 -18 -19 -19 -19 -20
-12 -13 -13 -13 -13 -13 -13 -13 -13 -13 -13 -13 -13 -14 -14 -14 -15 -15 -16 -16 -16 -16 -16 -16 -16 -16 -17 -17 -17 -17 -17 -17 -17 -17 -17 -18 -18 -18 -19 -19 -19 -19 -20
-13 -13 -13 -14 -13 -13 -13 -13 -14 -14 -14 -14 -14 -15 -15 -15 -16 -17 -17 -17 -17 -17 -17 -17 -17 -17 -17 -17 -17 -18 -18 -18 -18 -18 -18 -19 -19 -19 -19 -19 -20 -20 -20
-14 -14 -14 -14 -14 -13 -14 -15 -14 -14 -14 -15 -15 -16 -16 -17 -17 -17 -17 -17 -17 -17 -18 -18 -18 -18 -18 -18 -18 -18 -18 -19 -19 -19 -19 -19 -20 -20 -20 -20 -20 -20 -20
-14 -14 -14 -14 -15 -14 -15 -15 -15 -15 -15 -15 -16 -16 -16 -16 -17 -17 -17 -17 -18 -18 -18 -18 -18 -18 -19 -19 -19 -20 -20 -20 -20 -20 -20 -21 -21 -21 -22 -22 -22 -22 -22
-15 -14 -14 -16 -16 -15 -15 -15 -15 -15 -16 -16 -17 -16 -16 -16 -17 -17 -17 -17 -17 -18 -18 -19 -19 -19 -19 -20 -20 -21 -21 -21 -21 -22 -22 -22 -22 -22 -22 -23 -23 -23 -23
-15 -15 -16 -16 -16 -16 -16 -16 -16 -16 -17 -17 -17 -17 -17 -18 -18 -18 -18 -18 -19 -19 -19 -19 -19 -20 -20 -20 -21 -21 -22 -22 -22 -22 -22 -23 -23 -23 -23 -23 -23 -23 -23
Height
5872 5875 5872 5872 5872 5871 5872 5871 5869 5868 5867 5867 5864 5863 5860 5858 5856 5855 5854 5852 5850 5849 5849 5848 5848 5848 5849 5850 5849 5848 5847 5845 5845 5845 5846 5846 5845 5845 5844 5844 5843 5841 5840
5867 5873 5872 5870 5871 5871 5870 5869 5868 5866 5866 5865 5863 5863 5860 5859 5857 5856 5854 5853 5852 5852 5851 5850 5849 5849 5848 5848 5847 5846 5845 5843 5843 5842 5841 5841 5840 5840 5839 5837 5835 5833 5831
5872 5872 5872 5871 5871 5871 5869 5867 5866 5865 5865 5863 5862 5861 5860 5858 5857 5857 5856 5856 5855 5854 5853 5852 5851 5850 5849 5848 5846 5845 5843 5841 5840 5839 5837 5836 5835 5834 5832 5831 5829 5827 5824
5873 5872 5872 5869 5869 5870 5867 5866 5865 5864 5864 5862 5861 5860 5858 5857 5857 5857 5857 5856 5855 5854 5853 5852 5851 5849 5847 5846 5845 5843 5841 5839 5837 5835 5834 5832 5830 5828 5826 5824 5822 5820 5818
5872 5871 5871 5869 5868 5868 5865 5866 5864 5863 5861 5860 5859 5858 5857 5856 5855 5856 5856 5855 5854 5853 5852 5850 5849 5847 5845 5843 5841 5839 5837 5834 5832 5830 5828 5826 5824 5821 5819 5816 5813 5811 5809
5869 5869 5871 5870 5868 5866 5863 5864 5862 5860 5859 5858 5858 5856 5854 5854 5853 5853 5852 5851 5850 5848 5846 5845 5843 5841 5839 5837 5835 5834 5832 5830 5828 5825 5822 5820 5817 5815 5813 5811 5808 5805 5802
5867 5867 5867 5868 5867 5863 5862 5860 5859 5856 5855 5857 5856 5853 5852 5850 5849 5849 5848 5847 5845 5843 5841 5840 5838 5835 5833 5830 5828 5825 5823 5821 5819 5818 5815 5812 5810 5807 5804 5801 5798 5795 5792
5863 5862 5865 5865 5863 5861 5860 5858 5856 5855 5852 5852 5852 5851 5849 5847 5846 5846 5844 5843 5842 5839 5836 5833 5832 5829 5827 5824 5821 5819 5816 5814 5811 5809 5806 5803 5800 5797 5794 5791 5788 5784 5781
5860 5862 5861 5859 5859 5858 5857 5855 5854 5853 5849 5849 5848 5847 5845 5843 5842 5841 5839 5838 5837 5834 5831 5828 5825 5823 5820 5817 5814 5811 5808 5805 5802 5799 5796 5793 5789 5787 5784 5781 5777 5774 5771
5858 5858 5858 5858 5854 5853 5852 5852 5851 5849 5847 5846 5845 5843 5842 5840 5838 5836 5834 5832 5831 5828 5826 5822 5818 5815 5812 5808 5805 5802 5799 5796 5793 5789 5785 5782 5780 5777 5774 5770 5767 5764 5761
5856 5855 5855 5854 5853 5851 5849 5848 5847 5845 5844 5842 5840 5839 5838 5836 5834 5832 5829 5825 5824 5822 5818 5815 5812 5808 5804 5799 5795 5791 5788 5785 5782 5779 5774 5770 5769 5766 5762 5760 5757 5754 5752
5852 5852 5851 5851 5850 5848 5846 5845 5843 5840 5840 5839 5836 5835 5832 5830 5828 5826 5824 5821 5817 5813 5810 5806 5803 5799 5796 5792 5788 5784 5780 5777 5772 5768 5764 5761 5757 5755 5753 5750 5748 5746 5743
5848 5847 5846 5845 5844 5843 5842 5840 5838 5837 5835 5833 5831 5829 5826 5823 5821 5818 5815 5813 5809 5805 5801 5798 5794 5790 5786 5781 5778 5774 5771 5767 5763 5759 5755 5751 5747 5743 5741 5739 5737 5736 5733
5842 5841 5841 5840 5838 5837 5835 5834 5833 5831 5829 5827 5824 5821 5819 5816 5813 5810 5807 5803 5800 5797 5793 5789 5785 5780 5775 5771 5768 5764 5759 5756 5753 5749 5745 5741 5737 5734 5732 5729 5727 5725 5723
5836 5835 5834 5833 5831 5830 5828 5827 5825 5824 5822 5820 5817 5815 5811 5808 5805 5801 5797 5794 5790 5786 5782 5778 5773 5768 5764 5761 5756 5752 5749 5746 5742 5739 5735 5731 5728 5724 5721 5719 5717 5714 5712
5830 5829 5827 5824 5824 5823 5821 5819 5818 5816 5814 5811 5809 5806 5803 5799 5796 5792 5788 5784 5779 5775 5771 5766 5762 5757 5754 5750 5746 5742 5738 5733 5731 5727 5723 5720 5717 5713 5710 5707 5705 5703 5701
5822 5821 5819 5818 5817 5816 5813 5811 5809 5807 5804 5802 5799 5796 5793 5790 5786 5781 5777 5772 5768 5764 5760 5755 5750 5746 5743 5738 5735 5732 5728 5724 5720 5716 5712 5708 5705 5701 5698 5695 5692 5690 5689
5813 5812 5811 5811 5809 5806 5803 5802 5800 5798 5795 5793 5790 5787 5783 5778 5774 5770 5765 5762 5758 5753 5749 5744 5741 5737 5732 5729 5725 5721 5717 5713 5709 5705 5701 5697 5694 5690 5686 5684 5682 5680 5678
5803 5803 5801 5801 5800 5798 5795 5793 5790 5788 5786 5784 5780 5776 5772 5768 5763 5759 5755 5752 5747 5743 5739 5735 5730 5726 5722 5718 5714 5711 5707 5704 5700 5696 5692 5688 5684 5681 5677 5674 5671 5669 5668
5793 5792 5792 5791 5789 5788 5786 5784 5781 5778 5775 5773 5769 5765 5761 5756 5752 5748 5744 5740 5737 5733 5729 5725 5720 5716 5713 5708 5705 5701 5698 5695 5691 5687 5684 5680 5675 5671 5667 5665 5663 5660 5657
5782 5782 5782 5782 5780 5778 5777 5775 5772 5768 5765 5761 5758 5754 5750 5746 5742 5738 5735 5730 5726 5722 5718 5715 5712 5708 5704 5700 5695 5691 5687 5683 5680 5676 5672 5668 5664 5661 5658 5655 5651 5649 5647
5772 5772 5770 5768 5766 5766 5765 5763 5761 5758 5754 5749 5745 5743 5740 5736 5733 5729 5725 5721 5716 5712 5708 5705 5700 5695 5691 5687 5684 5680 5675 5671 5666 5662 5658 5654 5650 5647 5644 5641 5638 5635 5633
5762 5761 5758 5757 5757 5756 5754 5751 5747 5746 5744 5741 5738 5735 5732 5728 5723 5720 5716 5713 5709 5705 5701 5696 5692 5685 5680 5675 5670 5665 5660 5655 5651 5647 5644 5640 5636 5632 5629 5626 5624 5622 5619
5751 5750 5749 5747 5746 5745 5743 5740 5736 5734 5733 5731 5729 5725 5722 5719 5715 5710 5707 5703 5698 5693 5688 5683 5678 5672 5666 5661 5657 5652 5648 5643 5638 5632 5628 5623 5619 5616 5614 5612 5609 5607 5605
5742 5741 5738 5736 5737 5734 5732 5731 5728 5727 5724 5721 5717 5714 5711 5707 5703 5699 5694 5689 5684 5679 5674 5670 5665 5660 5656 5650 5645 5639 5634 5628 5624 5620 5615 5612 5608 5603 5599 5596 5594 5592 5589
5733 5732 5731 5730 5728 5726 5724 5722 5721 5719 5715 5711 5708 5703 5699 5694 5690 5686 5682 5677 5674 5670 5665 5660 5654 5649 5644 5638 5633 5627 5621 5616 5611 5606 5602 5598 5595 5590 5587 5584 5581 5578 5575
Wind_Speed
9 4 2 4 5 8 6 6 7 7 8 8 7 7 8 9 10 8 9 10 11 9 9 7 5 1 3 4 6 9 10 12 15 16 19 21 21 21 23 24 23 23 24
10 2 2 4 5 5 5 5 8 8 7 7 9 8 8 7 8 10 12 11 9 7 7 8 12 9 5 2 3 5 9 13 15 17 18 20 22 23 19 18 21 17 17
4 3 4 4 4 6 6 6 7 7 8 8 7 7 6 5 6 7 8 9 9 9 9 9 8 8 7 8 9 10 12 11 12 13 14 16 18 20 20 19 18 19 21
4 4 4 7 7 6 6 6 7 8 8 9 8 7 4 4 3 3 3 3 3 4 6 7 8 9 10 12 12 13 14 15 16 16 17 18 19 20 21 22 22 24 24
6 6 8 7 8 7 7 8 6 8 8 9 8 8 6 4 3 4 5 6 8 9 11 12 12 13 13 14 15 16 16 18 20 22 23 24 25 26 28 29 31 34 36
4 7 7 6 9 12 9 8 9 8 7 10 10 9 9 9 9 10 12 13 15 16 16 17 16 16 15 15 14 14 16 18 20 23 24 25 25 27 29 29 33 35 36
3 1 0 5 9 11 13 12 11 10 9 9 10 9 9 10 11 12 14 16 16 16 16 17 17 18 19 20 21 20 21 21 22 23 23 25 27 29 30 32 34 34 34
5 6 4 7 10 11 11 11 11 12 11 11 11 10 10 11 10 10 12 13 15 18 20 22 22 23 24 24 24 24 24 25 25 26 26 26 29 29 31 32 34 35 36
11 13 13 13 12 12 12 12 13 12 11 10 7 6 5 8 12 14 17 19 21 22 23 25 28 28 28 28 27 27 27 28 28 29 30 31 32 33 35 36 35 35 35
12 15 16 16 15 21 16 15 13 10 8 7 5 8 12 16 19 21 24 26 25 25 26 27 30 31 31 31 30 31 31 30 31 32 33 33 34 34 35 35 35 35 34
15 16 16 17 19 16 11 12 13 12 12 13 17 20 21 22 21 22 22 25 27 29 30 30 32 34 35 36 35 34 34 33 32 33 35 35 35 34 35 35 34 32 31
19 20 19 17 20 18 15 13 14 15 17 20 22 24 24 24 23 23 25 28 30 31 33 36 37 36 34 34 34 34 33 32 33 35 36 36 36 36 36 34 33 31 31
19 20 22 21 22 23 21 21 20 21 22 23 24 26 27 28 29 29 31 32 35 36 37 37 37 39 39 39 37 36 34 34 35 36 36 37 36 36 36 35 34 33 33
21 23 22 24 25 28 28 28 25 26 28 28 28 30 31 31 32 34 35 39 41 41 40 41 40 41 42 41 38 38 37 37 38 39 39 38 38 38 37 37 36 35 35
23 26 28 28 27 27 26 31 32 33 33 33 33 33 34 34 34 36 40 42 42 42 43 42 40 41 42 39 39 40 40 39 39 39 39 38 38 39 39 38 38 37 37
28 29 28 24 27 28 29 30 33 35 35 35 34 34 36 35 37 40 41 43 43 42 41 40 41 41 39 38 39 40 41 42 40 39 39 39 39 39 40 40 41 40 37
31 31 31 32 32 33 32 32 31 31 32 33 35 37 36 37 40 42 42 43 42 41 41 42 42 41 40 41 39 39 39 39 38 39 39 39 40 40 41 42 40 41 38
35 35 34 34 35 34 33 32 31 32 34 36 35 35 39 41 42 42 42 42 41 41 39 37 36 36 36 37 36 36 35 35 35 35 34 35 32 33 34 36 36 36 36
37 36 35 33 33 33 33 34 36 38 37 35 37 39 41 40 41 40 38 37 36 34 34 34 35 36 35 34 34 33 33 32 31 31 30 31 30 30 29 28 29 38 40
37 37 35 33 34 33 34 36 36 39 38 40 40 40 41 40 38 36 36 34 33 33 34 35 35 34 32 32 32 33 33 33 32 34 35 34 33 31 30 30 28 31 33
37 36 34 36 37 37 38 35 36 38 40 41 41 40 38 38 35 33 33 32 33 34 35 36 36 35 36 36 37 38 39 40 41 40 39 39 39 36 35 36 38 36 34
37 35 34 36 42 44 39 39 38 38 37 38 37 37 35 33 33 30 30 31 33 35 37 38 40 43 45 46 46 44 44 44 45 45 45 45 45 44 43 42 41 42 41
23 29 31 31 39 36 32 31 33 33 34 33 33 31 30 30 30 32 32 34 36 36 36 38 40 43 44 45 47 48 48 48 47 47 47 47 46 44 43 43 44 44 43
33 33 33 29 27 29 32 32 31 33 35 34 33 31 32 33 34 36 38 37 35 37 40 43 44 44 43 43 42 41 41 41 43 45 47 47 48 47 44 42 41 40 40
31 33 28 26 33 31 29 29 28 32 32 30 30 33 35 37 38 38 38 39 41 42 43 41 40 39 38 40 42 44 43 45 43 41 41 41 42 45 46 44 43 41 41
27 26 26 28 29 27 28 31 33 33 31 32 33 34 36 36 36 38 39 39 39 38 39 40 40 40 40 41 41 42 43 43 44 44 42 41 41 40 40 40 39 40 41
Wind_Direction
186 218 274 341 342 353 334 346 12 22 11 2 5 5 26 25 23 28 29 38 50 57 59 45 38 43 247 263 269 275 271 268 267 269 267 270 270 272 274 287 289 282 277
146 195 326 7 351 331 321 355 6 12 7 352 355 353 11 29 38 58 60 58 60 67 67 60 58 58 38 345 307 295 288 283 284 289 286 286 283 286 290 294 294 292 288
88 80 40 10 352 319 332 9 0 359 359 359 349 346 356 33 53 53 54 56 58 50 44 39 35 28 16 356 337 323 309 306 300 291 289 291 287 286 291 297 302 304 302
52 46 31 8 333 324 347 347 346 336 345 347 346 336 346 13 29 26 17 357 1 345 337 335 333 327 322 315 309 305 305 307 306 304 299 295 292 291 294 298 301 304 306
11 23 12 345 327 325 348 319 326 318 330 331 327 325 324 307 314 317 304 297 301 303 310 312 312 310 306 302 295 289 289 290 290 289 289 292 296 298 299 303 304 304 303
351 5 352 351 329 323 334 306 303 308 324 315 312 316 310 306 306 306 302 303 303 304 305 307 310 313 312 308 305 301 295 286 278 275 277 279 281 282 283 283 283 282 285
337 196 303 358 331 334 325 327 315 310 310 309 309 307 307 309 313 311 307 309 312 313 316 318 318 315 313 311 309 306 302 300 293 287 282 280 281 281 283 282 282 284 283
315 350 328 336 324 324 322 315 316 314 309 304 293 297 303 308 317 325 324 326 326 320 318 317 315 311 310 310 309 306 305 301 295 292 283 279 280 282 283 282 282 282 283
341 326 326 319 317 311 316 317 311 312 316 318 313 302 304 326 323 327 320 315 315 314 312 312 313 310 309 307 302 299 297 299 298 292 287 284 281 285 288 285 284 285 284
317 318 316 310 321 329 307 304 301 310 312 317 328 319 315 314 313 314 312 311 315 314 312 311 311 309 307 304 301 301 300 298 294 293 292 289 289 289 286 285 284 285 285
317 308 305 304 313 325 317 294 297 295 301 304 312 312 310 308 310 311 312 315 315 312 313 313 312 310 308 308 308 308 307 304 300 296 292 290 289 287 284 285 286 285 283
302 304 300 286 295 309 308 303 295 293 297 300 307 308 308 306 304 307 309 311 313 314 314 313 311 309 307 306 304 304 303 299 297 293 291 290 289 288 287 286 285 282 277
302 298 292 289 284 294 295 296 296 296 297 302 307 310 309 306 306 308 310 312 315 316 315 312 310 309 309 308 307 306 303 299 295 292 291 289 288 288 288 287 286 284 279
293 288 291 293 292 285 285 288 292 294 296 300 303 306 306 305 305 305 308 310 312 311 309 308 305 305 305 306 304 302 299 298 297 295 292 289 288 288 287 287 287 285 281
290 284 288 283 282 290 285 279 284 292 294 295 296 298 302 303 303 307 310 309 308 307 306 305 303 303 302 301 299 297 296 295 294 294 293 292 291 289 289 289 286 284 281
286 285 292 286 276 281 289 287 284 288 291 293 296 298 301 302 304 308 308 306 305 305 306 303 302 301 300 299 299 298 299 298 296 294 292 290 288 288 287 285 282 281 276
284 284 283 284 286 289 290 289 288 288 290 292 295 299 301 303 306 307 304 304 304 304 303 301 300 300 299 299 300 299 297 296 295 294 293 292 291 288 286 288 289 285 278
280 282 284 285 288 293 292 292 292 292 294 296 297 299 303 304 304 302 301 302 303 303 302 300 301 303 302 301 301 301 300 300 300 299 298 297 296 295 292 290 286 281 276
278 281 284 288 289 287 288 293 294 294 295 296 301 303 302 300 299 300 302 303 303 302 302 304 304 302 301 304 304 304 304 303 300 302 302 303 300 299 297 296 290 278 278
278 281 284 286 286 286 288 291 291 294 294 296 299 298 299 302 303 304 304 301 299 297 296 301 302 299 299 299 300 301 302 304 304 305 305 304 302 299 294 293 288 290 280
280 282 286 286 287 283 286 286 287 289 292 297 297 298 300 300 300 299 297 298 300 301 300 298 298 299 301 302 302 301 300 300 299 297 294 293 292 289 287 287 289 290 287
284 288 285 289 283 279 279 286 290 287 294 296 296 297 298 299 299 298 297 299 298 301 305 305 304 302 301 300 301 301 299 296 294 292 291 291 290 287 285 283 281 281 279
279 279 279 289 279 284 285 281 283 288 289 291 294 297 298 293 288 288 291 296 301 302 298 293 292 294 295 295 296 297 298 298 297 295 294 292 289 287 285 285 284 283 281
277 280 279 282 274 272 278 284 291 292 295 299 300 298 293 291 295 300 304 306 302 300 302 303 303 303 303 304 304 304 302 299 297 296 296 295 294 293 290 286 283 280 279
280 283 277 284 279 280 284 287 291 296 299 300 297 295 295 299 305 306 305 305 307 309 308 308 307 307 308 310 311 310 308 305 303 300 297 293 291 291 292 292 288 285 283
268 278 281 279 280 285 289 294 296 296 294 294 298 299 302 305 306 307 310 309 308 308 309 308 308 309 311 313 314 313 311 309 308 307 304 300 297 293 291 289 288 289 288